Overview Statistics Trail Chart Weather Telemetry Raw packets
 

This is the latest recevied weather packets stored in our database for station/object K6CED. If no packets are shown the sender has not sent any weather packets the latest 10 day(s).

<< 54 55 56 57 58 59 60 >>
Time Temp. Humidity Pressure Rain* Wind** Luminosity Snow
1788302515 31.11° C 22% 1016.4 hPa 0 mm - 537 W/m² -
1788302210 30.56° C 22% 1016.4 hPa 0 mm - 562 W/m² -
1788301905 31.67° C 24% 1016.6 hPa 0 mm - 579 W/m² -
1788301601 31.11° C 27% 1016.6 hPa 0 mm - 594 W/m² -
1788301297 31.67° C 27% 1016.6 hPa 0 mm - 609 W/m² -
1788300993 31.11° C 28% 1016.5 hPa 0 mm - 626 W/m² -
1788300689 31.11° C 29% 1016.9 hPa 0 mm - 637 W/m² -
1788300387 31.67° C 29% 1016.5 hPa 0 mm - 657 W/m² -
1788300087 30.56° C 30% 1016.9 hPa 0 mm - 673 W/m² -
1788299785 32.22° C 28% 1016.6 hPa 0 mm - 686 W/m² -
1788299481 31.11° C 28% 1016.9 hPa 0 mm - 697 W/m² -
1788299178 32.22° C 28% 1016.9 hPa 0 mm - 703 W/m² -
1788298873 31.67° C 29% 1016.9 hPa 0 mm - 711 W/m² -
1788298567 31.67° C 29% 1017 hPa 0 mm - 721 W/m² -
1788298261 31.67° C 29% 1017 hPa 0 mm - 727 W/m² -
1788297955 31.67° C 29% 1017 hPa 0 mm - 735 W/m² -
1788297652 31.67° C 29% 1017.1 hPa 0 mm - 741 W/m² -
1788297347 31.11° C 29% 1017.1 hPa 0 mm - 751 W/m² -
1788297043 31.67° C 30% 1017.1 hPa 0 mm - 755 W/m² -
1788296738 31.67° C 30% 1016.9 hPa 0 mm - 760 W/m² -
1788296435 31.67° C 30% 1017 hPa 0 mm - 762 W/m² -
1788296129 31.11° C 31% 1017.1 hPa 0 mm - 759 W/m² -
1788295824 31.11° C 31% 1017.1 hPa 0 mm - 753 W/m² -
1788295521 31.67° C 30% 1017 hPa 0 mm - 745 W/m² -
1788295215 31.67° C 30% 1017 hPa 0 mm - 733 W/m² -

* Rain latest hour (hover to see other rain measurements)
** Current wind speed in m/s (hover to see current wind gust speed)